Location: Izdebno
(52.6670°N, 16.2170°E)
Time: 04:14:29
(UTC+02:00)

Transit 4A - Pass Details

Date: 24 February 2024
Orbit: 871 x 972 km, 66.8° (Epoch: 22 April)

Event Time Altitude Azimuth Distance (km) Brightness Sun altitude
Rises 08:22:47 0° 318° (NW) 3,528 10.3 11.4°
Reaches altitude 10° 08:25:29 10° 325° (NW) 2,571 9.7 11.8°
Maximum altitude 08:31:04 41° 36° (NE) 1,261 8.8 12.5°
Drops below altitude 10° 08:36:33 10° 106° (ESE) 2,524 11.8 13.1°
Sets 08:39:10 0° 113° (ESE) 3,456 12.6 13.5°
